Wetbulb
54.37 53.99 53.74 53.59 53.61 52.96 52.01 51.15 51.47 51.89 51.32 51.08 50.53 50.19 50.13 50.49 50.43 46.37 43.75 45.49 42.99 38.78 42.16 46.60 47.21 42.85 43.31 43.11 40.91 43.65 47.69 48.30 47.18 43.94 44.40 44.28 44.40 45.28 43.20 45.89 44.37 43.41 42.00 41.38 41.88 39.30 39.23 55.22 57.29 51.48 55.78 57.12 58.56 58.73
54.19 53.97 53.66 53.46 53.47 52.97 52.15 51.36 51.63 51.94 51.76 51.04 50.78 50.36 49.96 49.94 49.94 48.44 42.65 48.24 48.64 41.16 41.71 46.17 46.85 46.92 45.86 45.44 43.41 42.67 43.68 46.58 48.22 44.31 44.71 45.79 45.99 45.13 44.04 41.43 47.97 43.85 45.09 42.73 46.85 46.05 50.62 54.21 53.73 55.61 55.78 54.65 55.81 59.32
54.00 53.83 53.50 53.28 53.05 52.72 51.98 51.21 51.53 52.10 51.49 51.07 50.77 50.42 49.87 49.81 49.62 47.50 40.63 43.27 46.52 43.58 43.67 43.19 43.55 47.46 49.10 46.12 47.46 42.76 46.19 48.19 47.61 49.23 45.68 45.57 43.82 46.64 41.85 43.35 44.30 48.44 50.55 47.54 47.26 50.01 50.74 52.78 54.25 55.01 55.16 54.81 56.17 58.63
53.96 53.65 53.41 53.14 52.89 52.44 51.85 51.22 51.62 52.07 51.77 51.17 50.94 50.60 50.06 50.44 49.76 48.13 39.09 43.23 44.96 44.09 39.84 43.84 50.27 46.66 50.04 49.77 49.08 48.71 48.20 48.63 47.88 48.08 45.16 43.57 43.19 48.43 44.93 45.38 44.71 47.84 49.53 47.13 48.21 50.68 50.79 53.03 53.62 54.89 56.15 56.63 56.31 57.08
53.49 53.48 53.03 52.86 52.66 52.51 52.12 51.33 50.94 51.70 51.71 51.32 51.09 50.66 50.22 50.16 49.40 45.58 41.23 43.71 46.45 44.16 40.72 42.46 47.22 49.42 47.83 50.04 48.01 48.76 47.69 46.22 44.74 43.19 42.87 41.85 45.83 45.39 45.11 44.77 45.77 48.01 47.54 43.76 43.04 50.03 48.71 50.64 53.81 56.03 55.62 55.99 56.62 55.69
53.00 53.11 52.93 52.62 52.45 52.43 52.13 51.33 51.69 51.64 51.86 51.54 51.52 51.20 50.41 49.72 49.14 43.09 44.36 45.85 43.49 44.21 42.89 39.70 46.14 45.94 47.50 48.08 49.81 47.06 46.59 45.54 45.43 42.71 41.57 43.18 48.45 45.70 41.72 40.97 48.95 51.26 52.82 50.90 49.07 52.04 53.48 54.40 56.43 58.29 57.90 58.38 59.00 56.04
52.54 52.87 52.73 52.50 52.50 52.28 52.04 51.53 51.54 51.41 51.25 51.24 51.12 50.64 49.92 49.32 43.71 40.92 42.91 46.04 46.33 42.83 43.51 39.85 40.60 46.19 48.86 48.01 45.79 45.52 45.44 44.91 43.24 40.36 40.47 40.75 42.47 45.85 42.02 39.86 45.82 53.40 53.19 53.42 53.52 54.31 50.80 52.42 51.35 57.59 59.95 60.13 57.87 56.34
52.18 52.53 52.61 52.43 52.38 52.02 51.68 51.07 51.04 51.12 51.15 50.92 50.64 50.03 49.72 49.25 47.07 40.75 42.99 48.15 43.92 43.89 43.53 37.87 40.18 42.98 47.10 43.44 42.18 44.85 43.09 44.01 44.52 42.03 41.87 39.79 41.03 42.71 39.15 43.09 49.95 52.19 53.98 53.93 53.95 55.17 50.79 52.38 53.42 56.25 59.38 61.09 59.05 56.50
50.62 52.15 52.30 52.19 52.11 51.91 51.37 51.32 51.02 50.73 50.74 50.70 50.13 49.64 44.34 42.02 41.63 47.07 53.54 50.26 45.46 45.90 40.86 39.67 36.33 39.14 46.57 43.27 43.37 44.71 43.53 40.17 43.51 41.13 40.61 42.02 37.99 36.05 40.94 43.18 45.91 50.88 50.60 51.45 52.83 51.49 51.37 51.94 52.94 56.53 56.91 57.34 55.88 56.63
49.73 51.49 52.22 52.25 52.05 51.63 51.35 51.05 50.64 50.32 50.39 49.48 44.46 40.40 39.58 45.31 53.49 51.12 44.87 42.47 42.20 42.36 41.39 37.98 40.86 39.29 45.01 43.60 40.80 42.11 42.18 39.37 38.54 41.76 43.36 39.34 37.85 45.70 47.14 47.89 47.86 48.50 48.86 50.75 48.33 48.53 49.26 52.76 54.08 54.42 54.94 56.32 56.25 56.68
49.44 49.49 52.04 52.21 51.85 51.27 50.87 50.68 50.35 49.18 47.70 40.58 39.19 40.03 47.49 52.82 44.66 43.90 41.83 39.66 39.13 37.50 38.25 38.51 38.52 37.66 42.83 42.19 41.19 43.46 41.14 40.44 36.31 39.40 41.40 39.73 41.40 46.55 49.66 49.26 50.04 51.12 50.61 50.23 49.84 49.53 50.15 54.04 54.52 54.30 54.29 55.16 55.07 56.09
50.47 50.04 51.90 51.83 51.23 50.52 50.06 50.09 49.41 45.60 42.28 42.18 43.15 44.09 44.69 43.92 42.79 40.65 38.50 40.20 38.86 38.21 41.03 38.75 39.46 40.45 43.06 45.49 43.66 43.39 40.70 41.04 36.18 43.04 40.50 37.53 43.35 46.92 48.70 49.24 50.19 50.21 53.48 52.09 51.51 51.17 51.28 54.53 56.55 54.71 53.46 53.34 53.21 53.52
51.04 51.39 51.30 50.40 49.84 49.36 49.72 49.73 49.12 48.69 47.06 45.37 43.65 43.63 41.12 40.38 32.97 36.64 34.98 37.42 36.68 40.56 41.97 40.81 38.97 42.44 43.34 43.84 41.72 40.22 39.23 38.15 43.87 40.33 38.59 41.23 45.18 46.46 46.50 48.14 49.48 51.63 54.06 54.65 55.78 54.68 54.60 55.79 56.64 55.14 54.30 53.03 53.31 54.22
49.19 50.17 49.39 49.30 49.32 49.40 49.33 49.34 49.10 47.22 43.15 41.90 40.85 31.43 35.47 35.03 36.79 37.37 37.81 38.35 41.53 41.89 42.01 41.94 41.13 39.93 41.03 40.48 40.79 38.75 40.63 41.95 38.57 36.84 38.22 42.49 44.81 46.99 46.91 49.84 51.70 52.02 51.72 53.25 54.00 54.75 54.84 54.38 55.33 55.38 56.14 55.46 54.80 54.59
47.85 48.34 48.78 49.01 49.41 49.16 48.95 49.00 48.62 45.17 41.56 41.62 41.77 32.31 36.38 39.97 39.36 40.15 40.73 42.93 44.02 44.53 43.65 43.49 42.89 42.98 39.96 41.21 41.33 41.05 39.92 38.24 39.43 37.78 41.62 45.40 46.15 47.71 48.22 49.99 51.66 51.66 51.61 51.58 52.12 52.73 54.24 54.24 53.19 53.60 54.48 55.78 56.13 55.33
47.61 47.22 46.73 48.48 48.72 48.61 48.08 47.44 45.36 44.46 44.19 43.19 42.63 39.56 38.59 37.78 38.03 39.45 41.96 42.10 45.07 45.08 45.71 45.09 41.68 40.43 40.13 40.04 40.00 38.88 38.63 37.36 39.13 42.90 44.60 46.42 45.53 46.05 48.26 48.93 50.76 52.43 51.51 50.35 51.31 52.36 52.69 52.91 52.53 52.12 52.96 53.71 54.26 53.81
46.65 44.15 48.13 48.29 47.86 47.60 46.99 45.65 45.22 41.97 42.84 42.98 40.19 42.83 40.45 40.82 42.39 43.29 43.58 44.42 46.84 45.04 42.10 42.47 39.37 38.77 44.94 38.97 38.95 41.73 40.11 41.43 45.40 44.49 44.44 45.91 46.34 48.92 48.52 51.32 53.15 52.76 51.39 51.06 51.09 53.49 53.90 52.77 52.72 51.27 50.36 51.57 52.12 51.91
43.91 46.76 48.18 47.33 46.37 45.41 44.79 43.02 42.30 42.76 40.33 40.55 38.53 40.50 43.81 44.65 43.59 43.95 44.85 46.43 45.57 44.99 43.92 42.52 44.40 39.68 38.76 39.70 40.00 43.13 44.07 44.13 45.03 45.41 46.65 47.30 48.66 50.47 51.08 49.27 50.71 50.60 50.61 51.52 50.85 50.90 51.21 51.05 49.83 49.11 51.96 52.96 52.88 52.17
46.28 46.60 47.21 47.36 46.46 45.18 42.96 42.87 44.15 39.11 39.74 39.96 41.48 43.48 44.11 44.36 45.15 45.58 44.73 46.21 47.49 48.37 46.50 45.64 42.04 40.50 40.68 43.18 43.74 44.68 45.72 46.31 47.32 46.76 47.17 48.67 50.25 49.69 50.48 50.21 50.78 50.56 52.49 50.29 49.92 50.05 50.07 50.55 51.04 50.48 52.73 52.13 49.25 51.67
48.88 48.64 48.28 48.43 48.08 43.26 42.05 41.13 45.19 40.96 39.66 41.67 43.50 42.49 43.56 43.09 44.10 44.98 44.80 45.27 45.40 44.02 41.94 43.38 41.67 43.71 43.63 45.19 47.16 47.77 49.13 49.11 46.96 45.86 46.89 48.94 49.67 49.21 48.03 49.33 50.16 49.22 49.73 49.88 49.28 49.12 49.64 49.01 49.60 49.90 50.22 49.38 48.82 48.45
47.25 46.44 47.85 46.52 45.39 44.63 42.86 41.78 39.79 40.11 43.38 41.79 42.91 42.25 42.30 43.71 41.98 42.13 42.69 44.73 42.83 41.39 44.38 44.96 45.24 45.88 49.63 49.98 50.16 47.68 48.09 48.65 47.22 46.57 45.83 46.04 48.14 48.78 48.30 49.20 49.51 49.55 48.47 48.49 48.70 48.37 48.34 48.94 50.26 50.48 50.29 51.02 51.57 51.21
44.31 48.00 43.68 44.89 41.93 44.70 42.45 44.27 41.87 44.29 42.97 43.37 43.62 44.39 41.87 40.02 40.43 41.21 43.73 42.45 43.76 44.19 45.82 47.21 47.10 47.35 48.31 49.58 50.69 50.35 49.43 48.74 47.61 45.59 44.81 45.30 46.26 48.05 49.32 49.76 51.55 48.95 48.66 48.09 48.93 49.07 48.87 49.22 49.88 49.49 48.55 47.82 46.67 49.83
47.18 46.30 44.54 45.50 41.31 37.81 36.30 45.07 41.92 43.52 40.49 41.43 42.89 41.00 40.35 40.73 41.73 44.66 40.72 41.65 42.54 47.83 49.35 49.35 49.42 50.29 49.41 49.92 50.27 49.38 49.84 48.93 47.57 47.59 46.48 47.46 48.79 49.40 50.11 51.42 50.21 48.46 47.57 48.19 48.51 48.17 48.45 46.42 47.61 48.98 50.46 51.17 51.98 52.38
47.73 42.60 41.51 41.78 41.03 35.74 43.18 40.60 42.73 41.10 41.89 40.55 39.66 37.76 39.18 40.90 43.70 41.26 38.47 40.56 43.49 48.19 49.35 48.83 48.44 47.34 48.47 48.74 47.78 48.47 49.52 49.20 48.03 48.02 48.82 49.08 48.73 51.42 51.98 52.14 51.89 50.11 49.60 49.27 47.14 46.74 46.73 47.34 46.72 48.29 49.48 49.10 50.93 49.78
36.92 34.70 37.23 31.95 39.56 40.83 37.44 37.77 37.59 37.72 37.95 39.37 38.30 38.87 39.93 42.58 38.58 37.91 37.94 41.65 46.20 45.58 48.28 50.00 47.46 47.41 47.19 47.21 47.82 48.47 49.67 50.67 49.08 47.55 51.91 52.70 51.61 50.88 50.29 50.35 49.64 49.85 50.72 49.59 49.43 49.70 49.46 49.56 49.66 49.32 49.40 49.42 49.00 49.19
33.17 38.91 34.99 38.64 38.96 37.64 37.00 36.71 37.00 38.10 41.00 40.41 40.93 42.17 41.89 40.18 38.71 33.65 41.95 44.12 45.87 46.66 47.24 47.57 46.72 45.98 47.08 48.07 47.44 47.69 49.32 53.07 53.18 50.01 50.56 52.50 52.11 50.67 47.71 47.02 46.20 46.74 49.51 50.84 50.33 50.80 49.57 49.04 49.32 49.45 48.47 49.53 46.60 49.62
33.96 39.21 43.06 44.64 43.73 41.53 39.62 41.28 42.62 41.70 41.30 40.74 40.06 39.55 41.42 36.54 36.15 41.14 45.81 47.80 46.85 48.42 50.18 49.56 48.82 47.96 47.80 47.74 49.80 51.36 52.88 55.07 53.13 50.99 51.25 50.64 50.96 52.07 50.93 47.44 46.69 47.79 51.28 51.44 50.47 50.37 49.26 49.46 50.58 51.25 49.88 50.05 50.58 50.94
38.70 39.86 38.01 40.56 41.78 42.84 40.39 40.42 41.24 40.60 40.99 42.84 42.64 39.79 39.87 40.25 39.90 45.24 46.89 49.54 50.05 50.49 50.64 50.98 51.46 51.44 50.84 51.77 52.73 54.15 53.72 54.01 53.17 53.10 52.45 53.84 53.65 51.99 50.33 50.79 50.59 46.96 50.51 50.67 51.09 51.04 50.61 50.20 50.17 51.04 51.96 49.44 49.63 51.74
39.66 41.67 40.74 38.28 39.64 40.14 40.14 40.02 41.34 43.78 45.75 43.41 41.64 41.20 41.99 44.40 47.42 47.72 48.97 49.74 51.35 50.12 48.51 48.28 49.71 51.41 50.70 52.19 51.04 50.96 51.37 51.44 50.46 49.55 49.23 49.11 49.05 48.43 51.65 50.63 50.17 48.11 47.59 47.45 44.35 47.61 48.73 47.95 47.81 48.07 49.14 50.00 50.23 50.13
41.05 43.04 40.04 40.55 38.84 37.45 43.26 45.62 44.64 46.99 46.64 46.18 45.62 44.38 44.56 47.95 49.82 51.21 50.02 49.43 48.70 48.12 49.11 49.73 49.75 49.76 49.15 47.87 48.17 50.42 53.23 53.91 53.88 51.66 48.29 47.95 48.30 51.99 53.63 53.90 50.88 49.75 48.63 48.76 48.82 49.43 44.23 46.10 46.80 49.07 49.52 48.85 48.85 48.53
43.68 43.05 41.67 40.43 39.85 42.10 44.23 47.19 48.84 48.54 47.55 46.37 46.71 44.96 44.40 46.57 49.69 51.77 52.93 51.50 51.24 50.87 52.04 50.26 48.84 49.40 49.43 50.72 50.56 49.79 49.68 51.03 52.01 51.56 51.76 51.76 51.48 52.66 52.27 51.79 51.93 51.11 49.64 50.76 50.22 49.65 49.20 48.49 49.48 50.02 49.64 49.00 48.92 47.81
43.42 42.76 41.94 40.98 43.08 46.69 48.42 46.85 46.24 46.26 47.05 46.80 46.25 47.47 48.68 47.72 46.92 50.42 53.95 53.67 52.58 51.89 49.80 50.01 51.06 52.14 53.25 53.68 54.43 53.90 47.91 51.75 52.94 52.76 51.60 51.59 50.61 50.31 50.78 50.81 51.84 52.70 51.72 51.69 52.00 51.34 51.54 50.35 48.57 49.54 49.10 48.55 48.05 47.77
44.54 43.85 43.91 43.77 44.75 45.06 47.26 46.88 46.48 45.86 46.83 46.41 46.08 46.89 47.91 48.28 46.15 49.24 53.64 54.05 52.69 52.74 52.55 52.63 53.54 54.88 54.22 54.47 54.64 54.83 51.04 53.59 48.98 42.49 41.75 43.17 42.37 43.15 46.28 49.95 50.91 52.46 52.20 51.25 51.46 52.63 52.44 51.91 48.66 47.94 48.28 47.96 47.78 47.70
MSLP
1014.05 1014.52 1015.26 1015.95 1016.64 1017.35 1018.00 1018.49 1018.79 1019.12 1019.42 1019.51 1019.45 1019.32 1019.11 1018.73 1018.38 1018.13 1016.63 1015.85 1016.09 1015.92 1014.04 1012.49 1011.72 1011.31 1011.10 1011.41 1011.83 1011.51 1011.29 1011.23 1011.53 1012.29 1012.62 1012.23 1011.59 1010.97 1010.71 1010.29 1010.33 1010.79 1011.31 1011.76 1011.86 1012.06 1012.25 1011.63 1010.35 1011.48 1013.03 1012.00 1011.21 1009.86
1013.42 1013.95 1014.39 1015.13 1015.90 1016.69 1017.39 1018.01 1018.34 1018.68 1019.04 1019.16 1019.21 1019.13 1018.96 1018.66 1018.38 1017.90 1017.37 1015.51 1015.53 1016.01 1014.31 1012.70 1011.73 1011.20 1010.73 1010.99 1011.76 1012.03 1012.60 1012.71 1012.80 1013.05 1013.30 1013.10 1012.66 1012.23 1012.16 1011.73 1011.15 1011.85 1012.25 1012.63 1013.42 1014.31 1014.59 1013.98 1014.00 1014.01 1013.33 1012.91 1012.09 1011.05
1012.77 1013.25 1013.78 1014.41 1015.13 1015.99 1016.81 1017.44 1017.92 1018.34 1018.71 1018.87 1018.94 1018.88 1018.67 1018.50 1018.32 1018.10 1017.71 1016.67 1015.89 1015.83 1014.29 1012.98 1011.45 1010.60 1010.43 1010.79 1011.10 1012.10 1012.78 1012.56 1012.88 1012.96 1013.59 1013.51 1013.24 1012.99 1012.85 1012.45 1012.05 1012.35 1012.45 1013.42 1013.86 1014.44 1014.27 1014.57 1014.79 1014.47 1013.60 1012.90 1012.49 1011.78
1012.20 1012.47 1013.01 1013.67 1014.46 1015.31 1016.16 1016.87 1017.49 1018.01 1018.35 1018.61 1018.62 1018.61 1018.35 1018.28 1018.11 1017.89 1017.76 1016.86 1016.62 1016.23 1015.31 1012.91 1011.09 1010.61 1010.32 1010.45 1010.85 1011.41 1012.11 1012.48 1012.81 1013.18 1013.69 1013.68 1013.39 1012.74 1012.60 1012.41 1012.57 1012.61 1012.73 1013.69 1014.39 1014.22 1013.75 1014.04 1014.19 1014.63 1013.74 1012.95 1011.96 1011.33
1011.71 1011.87 1012.28 1012.95 1013.75 1014.69 1015.63 1016.43 1017.10 1017.61 1018.03 1018.31 1018.38 1018.27 1018.17 1018.00 1017.73 1017.41 1017.37 1016.54 1016.26 1016.50 1015.77 1014.09 1012.15 1010.75 1010.59 1010.69 1010.97 1011.32 1012.08 1012.92 1013.62 1013.85 1014.09 1013.75 1012.80 1012.67 1012.61 1012.72 1013.07 1012.82 1013.10 1013.70 1014.55 1014.55 1014.56 1014.16 1013.87 1013.79 1013.29 1012.81 1012.31 1012.15
1011.36 1011.27 1011.65 1012.37 1013.30 1014.24 1015.20 1015.98 1016.72 1017.26 1017.69 1017.91 1018.00 1018.02 1018.00 1017.83 1017.54 1017.17 1016.98 1016.40 1016.16 1016.10 1016.01 1014.73 1012.39 1011.26 1011.04 1011.01 1011.27 1011.79 1012.28 1013.05 1013.67 1014.13 1013.95 1013.32 1012.45 1012.57 1013.25 1013.60 1013.37 1013.13 1013.22 1013.57 1014.18 1014.21 1013.98 1013.69 1013.43 1013.31 1012.94 1012.13 1011.77 1011.10
1011.15 1011.02 1011.37 1012.02 1012.79 1013.79 1014.77 1015.53 1016.36 1017.00 1017.40 1017.63 1017.79 1017.85 1017.81 1017.77 1017.71 1017.35 1016.93 1016.27 1016.07 1016.42 1016.10 1015.28 1013.49 1011.62 1011.24 1011.41 1011.91 1012.29 1012.43 1012.96 1013.49 1013.87 1013.94 1013.69 1013.25 1013.22 1013.70 1013.92 1013.53 1013.33 1013.33 1013.66 1014.04 1014.12 1013.93 1013.33 1013.21 1012.90 1012.93 1012.09 1011.11 1010.82
1011.02 1010.93 1011.13 1011.77 1012.53 1013.48 1014.45 1015.36 1016.06 1016.75 1017.16 1017.47 1017.67 1017.59 1017.51 1017.22 1017.03 1016.63 1015.24 1015.10 1016.16 1016.37 1016.10 1015.63 1014.15 1012.58 1011.63 1012.38 1012.98 1012.61 1013.01 1013.23 1013.38 1013.46 1013.52 1013.63 1013.54 1013.88 1014.38 1013.62 1013.24 1013.07 1013.08 1013.27 1013.33 1013.27 1012.93 1012.41 1012.83 1012.56 1012.04 1011.97 1011.47 1011.43
1011.09 1010.90 1011.13 1011.60 1012.28 1013.19 1014.10 1015.07 1015.87 1016.49 1017.08 1017.35 1017.47 1017.42 1017.07 1016.76 1016.48 1015.33 1015.04 1015.39 1015.77 1016.34 1016.06 1015.66 1014.72 1013.40 1011.86 1012.35 1012.90 1012.77 1012.93 1013.68 1013.37 1013.53 1013.57 1013.86 1014.36 1015.07 1015.15 1014.30 1013.69 1012.92 1012.73 1012.48 1012.46 1012.63 1012.84 1012.78 1012.49 1012.27 1011.87 1011.29 1011.14 1011.99
1011.08 1010.91 1011.04 1011.52 1012.11 1012.91 1013.83 1014.82 1015.74 1016.39 1016.90 1017.15 1017.28 1017.03 1016.51 1015.28 1014.87 1014.99 1015.38 1015.61 1015.59 1015.55 1015.67 1015.58 1014.16 1013.35 1012.58 1012.90 1013.17 1013.57 1013.47 1013.84 1014.05 1013.67 1013.33 1013.83 1015.43 1015.77 1015.25 1014.57 1013.54 1013.07 1012.65 1012.31 1012.21 1012.24 1012.29 1012.51 1012.33 1012.32 1012.05 1011.81 1011.69 1011.24
1010.70 1010.79 1010.79 1011.21 1011.97 1012.75 1013.69 1014.76 1015.55 1016.24 1016.69 1017.02 1016.91 1016.40 1015.30 1014.91 1015.07 1015.27 1015.49 1015.65 1015.47 1015.55 1014.96 1014.27 1013.84 1013.50 1012.61 1013.03 1013.47 1013.54 1013.94 1014.18 1014.55 1014.29 1014.15 1014.99 1016.04 1015.93 1015.43 1014.88 1014.37 1013.76 1013.10 1012.55 1012.36 1012.27 1011.97 1011.87 1012.15 1012.52 1012.51 1012.33 1012.36 1012.15
1009.65 1009.50 1010.10 1010.72 1011.89 1012.61 1013.73 1014.72 1015.39 1015.83 1016.22 1016.30 1016.31 1015.92 1015.47 1015.28 1015.35 1015.28 1015.09 1014.71 1014.71 1014.33 1013.58 1013.38 1013.24 1012.96 1012.67 1012.43 1013.19 1013.64 1014.06 1014.41 1014.59 1014.39 1014.93 1016.03 1016.24 1016.05 1015.81 1015.22 1014.75 1014.20 1013.58 1013.03 1012.30 1012.20 1011.97 1011.63 1011.85 1012.09 1012.51 1012.62 1012.23 1012.26
1009.01 1009.11 1009.71 1010.63 1011.82 1012.83 1013.95 1014.69 1015.19 1015.71 1015.72 1015.76 1016.02 1015.69 1015.31 1015.16 1015.15 1014.69 1014.33 1014.05 1013.79 1012.87 1012.66 1012.71 1013.06 1012.83 1012.58 1012.60 1013.31 1013.76 1014.22 1014.59 1014.33 1014.96 1015.74 1016.37 1016.30 1016.23 1016.03 1015.64 1015.08 1014.70 1014.06 1013.85 1013.30 1013.03 1012.75 1012.61 1012.79 1012.93 1012.81 1012.75 1012.69 1012.65
1009.45 1009.35 1010.14 1011.18 1012.21 1013.23 1014.12 1014.94 1015.69 1016.17 1016.45 1015.88 1015.34 1015.42 1014.91 1014.37 1014.00 1013.44 1013.13 1012.85 1012.37 1012.14 1012.35 1012.54 1013.16 1013.15 1013.24 1013.50 1013.71 1014.13 1014.20 1014.31 1015.00 1015.64 1016.35 1016.68 1016.49 1016.26 1016.15 1015.91 1015.51 1015.19 1014.72 1014.73 1014.61 1014.04 1013.95 1013.90 1013.72 1013.58 1013.38 1013.29 1013.43 1013.43
1011.06 1011.16 1011.43 1012.25 1013.13 1013.89 1014.75 1015.50 1016.13 1016.49 1016.34 1015.35 1014.63 1014.45 1014.14 1013.40 1012.97 1012.59 1012.39 1012.28 1011.92 1011.70 1012.19 1012.87 1013.33 1013.50 1013.81 1013.83 1013.92 1014.30 1014.67 1015.09 1015.59 1016.28 1016.57 1016.64 1016.61 1016.53 1016.37 1016.13 1015.92 1015.53 1015.26 1015.02 1014.63 1014.29 1014.19 1014.19 1014.22 1014.17 1014.17 1013.90 1013.89 1014.01
1012.15 1012.69 1013.09 1013.57 1014.01 1014.63 1015.37 1016.19 1016.60 1016.55 1015.79 1014.99 1014.25 1013.61 1013.01 1013.08 1012.84 1012.45 1012.45 1012.28 1011.74 1011.74 1012.15 1012.85 1013.84 1014.49 1014.56 1014.52 1014.59 1014.85 1015.30 1015.91 1016.36 1016.40 1016.42 1016.59 1016.75 1016.64 1016.24 1015.88 1015.60 1015.67 1015.61 1015.35 1014.70 1014.62 1014.73 1014.63 1014.65 1014.69 1014.54 1014.15 1014.21 1014.39
1012.77 1013.30 1013.91 1014.42 1014.95 1015.70 1016.24 1016.49 1016.26 1015.96 1015.15 1013.93 1013.31 1012.51 1012.53 1012.76 1012.73 1012.59 1012.42 1012.27 1011.60 1012.30 1013.53 1013.87 1014.53 1014.97 1015.13 1015.45 1015.65 1016.19 1016.81 1016.81 1016.77 1016.69 1016.76 1016.63 1016.61 1016.50 1016.21 1015.90 1015.65 1015.49 1015.29 1015.24 1015.25 1015.24 1015.15 1014.96 1014.91 1015.08 1015.09 1015.18 1015.37 1015.36
1013.46 1014.13 1014.59 1015.11 1015.42 1015.96 1016.53 1016.76 1016.43 1015.19 1014.53 1013.64 1013.31 1012.75 1012.39 1012.35 1012.58 1012.69 1012.59 1012.38 1012.58 1013.03 1013.44 1013.93 1014.41 1015.25 1015.91 1016.15 1016.54 1016.56 1016.45 1016.40 1016.39 1016.44 1016.49 1016.60 1016.60 1016.44 1016.16 1015.99 1015.76 1015.62 1015.53 1015.39 1015.55 1015.82 1015.64 1015.62 1015.79 1015.87 1015.71 1015.76 1015.60 1015.58
1014.20 1014.81 1015.41 1015.61 1015.85 1016.41 1016.22 1015.89 1015.12 1014.83 1014.12 1013.38 1012.89 1012.51 1012.51 1012.68 1012.73 1012.64 1012.70 1012.53 1012.49 1012.66 1013.22 1014.01 1015.23 1015.99 1016.31 1016.45 1016.43 1016.27 1016.17 1016.53 1016.42 1016.28 1016.45 1016.34 1016.29 1016.34 1016.32 1016.21 1016.09 1015.95 1015.86 1015.85 1015.95 1015.92 1015.91 1015.89 1015.92 1016.00 1015.83 1015.87 1015.94 1015.88
1015.11 1015.57 1015.83 1015.81 1015.92 1015.54 1014.86 1015.15 1014.52 1014.45 1014.06 1013.68 1013.28 1013.26 1013.25 1013.24 1013.17 1013.06 1013.05 1013.09 1013.19 1013.58 1014.13 1014.91 1015.77 1015.82 1015.95 1016.12 1016.08 1016.23 1016.19 1016.15 1016.26 1016.55 1016.49 1016.44 1016.39 1016.33 1016.33 1016.22 1016.19 1016.11 1016.06 1016.02 1015.99 1015.79 1015.96 1016.00 1015.89 1015.98 1016.08 1016.19 1016.37 1016.42
1015.10 1015.33 1015.07 1014.88 1014.70 1014.65 1014.85 1014.86 1014.55 1014.44 1014.13 1013.89 1013.68 1013.68 1013.62 1013.31 1013.62 1013.74 1013.72 1013.49 1013.91 1014.17 1014.71 1015.07 1015.43 1015.13 1014.96 1015.44 1015.72 1016.01 1016.25 1015.89 1015.94 1016.06 1016.35 1016.59 1016.40 1016.32 1016.27 1016.23 1016.13 1016.19 1016.12 1016.11 1016.06 1016.05 1016.08 1016.09 1016.04 1016.03 1016.09 1016.11 1016.12 1016.12
1015.33 1015.31 1015.37 1015.13 1015.10 1014.81 1014.88 1014.53 1014.61 1014.36 1014.32 1014.14 1013.93 1013.80 1014.15 1014.29 1014.31 1014.17 1013.89 1014.18 1014.40 1014.25 1014.36 1014.83 1015.23 1015.40 1015.60 1015.58 1015.59 1015.58 1015.47 1015.55 1015.71 1015.85 1015.97 1016.10 1016.34 1016.27 1016.18 1016.13 1016.12 1016.14 1016.12 1016.09 1016.04 1016.12 1016.18 1016.07 1016.01 1016.00 1016.06 1016.05 1016.03 1016.05
1015.61 1015.45 1015.44 1015.35 1015.56 1015.65 1015.49 1014.61 1014.72 1014.81 1014.91 1014.76 1014.45 1014.56 1014.65 1014.51 1014.18 1013.89 1014.42 1014.40 1014.38 1013.90 1013.89 1014.23 1014.48 1014.76 1015.05 1015.09 1015.12 1015.28 1015.32 1015.51 1015.75 1015.80 1015.83 1015.94 1015.99 1015.98 1015.92 1015.93 1015.91 1016.09 1016.19 1016.06 1015.85 1015.97 1016.05 1015.92 1015.87 1015.82 1015.80 1015.76 1015.70 1015.87
1015.75 1016.14 1016.28 1016.24 1016.22 1016.26 1015.60 1015.69 1015.66 1015.63 1015.21 1015.15 1015.12 1014.95 1014.69 1014.38 1014.17 1014.38 1014.88 1014.70 1014.32 1014.18 1014.19 1014.40 1014.56 1015.05 1015.26 1015.35 1015.59 1015.55 1015.52 1015.47 1015.55 1015.63 1015.66 1015.77 1015.90 1015.76 1015.68 1015.74 1015.75 1015.75 1015.70 1015.64 1015.68 1015.78 1015.81 1015.79 1015.64 1015.52 1015.36 1015.35 1015.27 1015.26
1016.51 1016.81 1016.88 1016.92 1016.43 1016.26 1016.58 1016.57 1016.45 1016.10 1015.62 1015.49 1015.23 1014.75 1014.44 1014.03 1014.45 1014.75 1014.88 1014.59 1014.37 1014.35 1014.45 1014.52 1014.81 1014.95 1015.41 1015.59 1015.57 1015.43 1015.17 1015.25 1015.43 1015.57 1015.39 1015.34 1015.47 1015.60 1015.66 1015.58 1015.51 1015.37 1015.28 1015.54 1015.62 1015.49 1015.34 1015.11 1015.09 1015.09 1014.81 1014.76 1014.67 1014.51
1016.97 1016.71 1016.79 1016.97 1017.19 1017.01 1017.23 1016.83 1016.25 1015.72 1015.24 1015.08 1014.66 1014.04 1013.70 1014.09 1014.45 1014.84 1014.66 1014.65 1014.70 1014.61 1014.52 1014.55 1014.84 1015.23 1015.25 1015.05 1015.32 1015.19 1015.05 1014.91 1015.11 1015.20 1015.24 1015.16 1015.14 1015.33 1015.34 1015.41 1015.46 1015.29 1014.91 1014.96 1014.78 1014.87 1014.90 1014.75 1014.69 1014.55 1014.43 1013.97 1013.87 1014.05
1016.72 1016.53 1016.71 1016.58 1016.78 1016.92 1016.78 1016.36 1015.69 1015.01 1014.61 1014.07 1013.67 1013.62 1013.59 1014.00 1014.40 1014.81 1014.61 1014.44 1014.53 1014.36 1014.21 1014.25 1014.42 1014.63 1014.85 1014.82 1014.74 1014.69 1014.79 1014.67 1014.72 1014.82 1014.77 1014.71 1014.66 1014.47 1014.57 1014.91 1014.85 1014.63 1014.19 1014.22 1014.40 1014.40 1014.46 1014.35 1014.05 1013.98 1013.95 1013.87 1013.76 1013.91
1016.58 1016.25 1016.13 1016.05 1015.97 1015.75 1015.29 1014.47 1014.25 1014.11 1013.87 1013.54 1013.33 1013.55 1013.61 1014.02 1014.70 1014.73 1014.53 1014.29 1014.21 1014.12 1014.14 1014.15 1014.17 1014.21 1014.30 1014.35 1014.46 1014.55 1014.61 1014.43 1014.37 1014.27 1014.17 1013.90 1013.67 1013.62 1013.71 1013.66 1013.65 1013.67 1013.67 1013.59 1013.64 1013.73 1013.86 1013.86 1013.83 1013.69 1013.51 1013.61 1013.58 1013.45
1016.57 1016.21 1015.94 1015.73 1015.30 1014.84 1014.50 1014.39 1014.47 1014.53 1014.33 1013.98 1014.19 1014.34 1014.31 1014.25 1014.26 1014.33 1014.30 1014.13 1014.08 1014.15 1014.30 1014.28 1014.27 1014.16 1014.29 1014.39 1014.41 1014.39 1014.43 1014.38 1014.46 1014.36 1014.28 1014.34 1013.88 1013.63 1013.34 1013.45 1013.49 1013.53 1013.46 1013.46 1013.50 1013.38 1013.34 1013.49 1013.41 1013.35 1013.42 1013.48 1013.40 1013.46
1016.54 1016.15 1016.15 1015.91 1015.68 1015.31 1014.99 1014.79 1014.86 1014.67 1014.51 1014.45 1014.45 1014.53 1014.49 1014.35 1014.43 1014.21 1014.17 1014.24 1014.39 1014.46 1014.35 1014.26 1014.19 1014.23 1014.49 1014.71 1014.54 1014.28 1013.99 1013.94 1013.69 1013.69 1013.64 1013.63 1013.52 1013.30 1013.05 1012.68 1012.85 1012.84 1012.74 1012.99 1013.15 1013.06 1013.07 1013.15 1013.08 1013.08 1013.17 1013.29 1013.42 1013.48
1016.52 1016.29 1016.09 1016.01 1015.73 1015.27 1014.95 1014.76 1014.58 1014.52 1014.55 1014.68 1014.68 1014.82 1014.84 1014.68 1014.56 1014.34 1014.28 1014.19 1014.19 1014.15 1014.23 1014.33 1014.25 1014.23 1014.52 1014.49 1014.57 1014.55 1014.09 1013.50 1013.18 1012.94 1012.83 1012.73 1012.62 1012.61 1012.28 1012.07 1012.16 1012.17 1012.40 1012.63 1012.85 1013.01 1012.85 1012.94 1012.89 1012.97 1012.63 1012.89 1013.07 1013.11
1016.33 1016.06 1015.87 1015.50 1015.12 1014.75 1014.64 1014.66 1014.70 1014.73 1014.71 1014.77 1014.87 1014.91 1014.86 1014.70 1014.59 1014.28 1013.83 1013.82 1013.89 1013.95 1014.17 1014.22 1014.19 1014.53 1014.65 1014.57 1014.09 1013.91 1013.55 1013.05 1012.49 1012.81 1012.81 1012.80 1012.54 1012.35 1012.18 1012.03 1011.86 1011.82 1011.80 1011.95 1012.09 1012.36 1012.51 1012.84 1012.77 1012.60 1012.63 1012.65 1012.73 1012.86
1015.65 1015.63 1015.46 1015.08 1014.47 1014.27 1014.02 1014.09 1014.21 1014.30 1014.40 1014.42 1014.45 1014.47 1014.51 1014.31 1014.24 1014.00 1013.49 1013.53 1013.55 1013.61 1013.66 1013.63 1013.75 1013.94 1013.80 1013.53 1013.18 1013.07 1013.09 1012.97 1012.81 1012.80 1012.84 1012.49 1012.33 1012.25 1012.07 1011.85 1011.59 1011.48 1011.51 1011.63 1011.70 1011.50 1011.95 1012.16 1012.35 1012.23 1012.22 1012.26 1012.31 1012.33
Wind_Speed
20 22 23 23 21 20 19 17 12 10 9 9 7 9 11 13 14 6 6 3 4 1 7 3 4 3 4 4 3 5 4 7 5 5 2 3 2 3 4 3 4 3 2 2 1 2 4 21 7 9 5 9 13 8
19 22 23 23 23 21 20 17 13 10 9 9 8 8 10 11 13 11 3 3 1 4 7 3 6 5 5 4 5 5 5 0 2 3 2 1 3 3 2 3 6 4 3 3 4 4 3 5 13 3 2 3 11 14
18 22 24 24 24 22 20 18 13 11 10 9 8 8 9 10 11 8 3 4 3 3 6 4 4 4 3 3 5 5 3 2 3 4 3 3 1 3 0 3 1 2 2 4 4 1 3 5 7 2 4 3 7 10
16 21 24 25 24 23 21 19 15 12 10 10 8 8 9 9 10 8 2 2 2 1 1 7 1 3 3 3 3 6 5 4 2 3 1 2 1 4 3 3 3 3 3 1 1 4 3 2 5 2 4 6 6 4
12 19 22 25 24 23 21 19 16 13 11 10 8 7 8 10 12 5 3 3 2 4 3 5 8 4 4 4 2 2 5 3 2 2 1 3 2 3 3 3 2 1 5 4 3 3 2 6 7 7 4 5 6 6
10 15 22 25 24 23 21 19 16 13 10 8 7 6 7 9 12 2 3 2 4 2 3 3 5 3 2 3 1 3 3 2 3 3 3 3 3 4 3 1 2 1 2 3 5 5 6 7 8 4 1 8 13 17
9 12 20 24 25 24 21 19 15 12 10 7 6 7 7 7 2 2 4 4 5 2 3 4 5 4 6 3 2 1 2 2 3 2 1 2 3 4 3 2 3 4 5 4 6 6 4 4 4 3 4 1 9 12
9 10 19 23 24 23 22 19 16 13 9 7 6 7 10 10 5 5 4 10 5 2 2 1 5 3 3 2 1 2 1 2 2 3 2 1 3 3 2 5 6 7 7 7 10 11 6 4 3 7 2 5 1 5
11 8 16 21 23 23 22 20 17 13 9 6 5 9 3 2 1 4 4 9 1 3 2 1 3 5 0 2 3 3 3 1 2 2 3 4 1 1 5 4 6 8 7 6 7 7 4 5 7 3 5 0 5 8
7 6 16 21 23 23 22 20 16 12 9 4 1 2 1 4 6 5 4 3 4 2 1 2 1 3 3 1 1 2 2 2 2 4 1 3 4 4 7 9 5 5 6 6 5 5 3 3 5 2 1 4 2 4
10 12 17 24 25 24 22 19 16 13 5 1 2 3 2 2 3 1 2 2 1 1 3 5 5 2 3 3 2 1 2 1 3 6 4 2 3 4 7 7 8 13 9 5 4 2 5 4 4 3 2 3 4 4
13 15 21 26 26 26 22 18 16 4 3 4 1 3 2 2 1 3 4 2 3 6 3 5 5 6 3 3 4 3 2 3 2 2 4 2 4 4 6 6 6 7 9 7 3 7 6 5 6 6 3 1 3 5
3 16 23 29 28 27 23 18 12 8 5 1 2 2 3 2 2 5 6 3 3 2 2 2 0 3 4 4 3 3 3 3 1 2 3 4 3 4 4 5 6 5 8 9 12 8 8 9 8 4 3 2 3 4
18 24 30 27 27 25 19 14 7 2 1 2 4 2 4 4 4 5 5 5 6 3 3 4 2 4 1 4 2 3 3 3 3 2 3 2 3 3 3 4 4 6 8 8 2 8 9 6 5 5 5 5 5 6
20 20 20 25 23 22 18 12 6 1 2 1 1 4 5 4 3 4 4 1 2 3 4 4 4 4 2 3 1 2 2 2 2 2 3 2 1 3 1 3 2 6 5 3 5 6 6 6 5 6 5 7 6 6
20 14 5 18 20 19 15 7 2 1 2 2 4 2 3 3 4 1 1 1 2 2 3 4 3 4 4 1 1 4 3 2 3 3 2 2 1 1 2 1 1 2 2 2 5 5 4 5 4 3 4 6 7 6
8 3 19 20 20 16 8 2 1 3 4 3 3 3 4 3 3 1 2 2 2 5 3 3 3 2 2 2 3 4 2 2 3 2 2 3 3 1 5 6 5 3 5 4 3 2 4 3 5 5 6 4 5 4
6 12 23 17 8 7 3 1 3 2 3 3 0 5 2 3 3 3 1 3 5 3 3 3 4 4 2 2 2 4 5 4 4 4 3 3 2 5 3 2 4 4 3 4 2 2 5 7 5 1 4 3 4 4
12 13 20 17 6 3 5 5 3 3 4 3 3 3 2 2 2 2 2 3 1 2 4 3 4 2 2 3 4 4 2 2 3 2 3 4 4 2 3 3 4 4 1 1 2 2 3 4 4 2 3 3 3 2
16 13 14 13 8 3 2 3 1 1 2 3 3 3 1 2 1 1 2 3 3 3 3 3 2 3 4 3 3 3 2 3 2 1 1 0 1 4 2 1 1 3 2 2 1 2 2 2 1 3 3 3 4 2
5 1 2 3 2 0 2 1 1 3 2 2 1 1 1 2 2 2 2 2 4 1 3 3 4 4 3 4 1 2 5 2 2 4 4 2 1 2 1 1 1 2 0 1 2 0 2 3 1 3 3 2 3 2
1 2 1 1 2 2 2 2 2 2 3 2 3 3 3 2 2 1 1 4 1 2 4 5 4 3 2 3 4 5 3 0 2 3 4 4 1 0 0 1 1 1 1 1 2 3 2 1 3 3 3 2 1 2
2 3 3 4 5 6 4 3 4 4 3 4 3 2 2 1 3 2 2 2 3 3 4 4 4 5 5 4 4 2 2 3 2 3 2 1 2 1 0 1 1 2 1 2 2 3 3 3 2 3 3 3 2 3
1 3 3 2 2 2 1 4 4 3 3 3 2 1 1 2 0 3 0 2 3 1 2 5 3 2 3 4 2 2 3 2 2 1 1 2 0 2 2 2 2 3 3 2 3 3 3 4 5 4 4 5 4 5
5 5 4 4 3 2 4 2 3 2 2 1 1 2 3 2 2 1 3 3 2 2 3 3 4 4 4 2 1 2 1 3 2 2 2 3 2 1 2 3 3 4 3 1 3 4 4 4 3 4 6 5 4 3
4 2 4 4 3 3 2 2 3 4 3 3 4 4 1 3 2 3 0 1 2 1 1 4 4 2 2 4 3 2 2 3 2 2 1 3 3 3 4 3 1 3 4 4 5 3 4 3 4 6 3 2 5 3
3 3 1 3 3 2 3 2 3 3 4 5 3 2 2 2 1 0 1 2 2 2 2 3 3 4 4 3 2 2 2 3 3 2 2 3 5 5 4 5 6 5 5 6 5 5 4 5 3 1 4 1 0 1
3 1 3 3 5 8 7 2 2 3 2 4 1 3 1 2 1 2 3 3 2 1 2 2 3 3 2 2 3 2 2 2 3 4 3 4 4 4 4 5 5 7 5 5 5 6 5 5 4 4 1 5 3 2
2 3 1 4 4 4 4 3 3 3 4 2 2 2 1 0 3 2 2 1 1 2 2 2 3 1 0 1 1 2 2 1 0 3 3 3 4 5 2 3 4 5 5 4 5 6 4 3 3 4 4 2 4 1
2 3 3 3 3 2 3 3 1 2 2 1 1 2 2 2 0 2 2 2 2 1 3 4 3 3 2 2 2 3 3 2 5 5 3 4 5 3 3 8 5 6 5 5 5 5 2 1 1 2 2 3 2 1
2 2 1 1 2 3 2 2 2 3 2 2 2 2 1 1 2 1 1 1 2 3 2 3 0 2 3 3 3 4 6 3 4 2 1 3 3 3 3 3 5 5 3 3 4 5 4 3 4 5 4 5 6 5
2 2 2 2 3 3 2 2 2 1 0 0 1 2 2 1 1 2 2 3 2 2 2 3 4 3 4 7 7 6 10 6 4 1 2 3 3 3 3 1 4 4 6 6 5 3 3 5 4 6 4 4 6 7
2 3 3 3 2 2 3 3 4 4 2 2 3 2 2 3 2 4 1 2 1 3 2 1 1 3 5 7 8 6 6 5 4 4 9 7 3 4 5 4 4 4 6 5 5 5 5 8 7 7 7 6 6 6
Wind_Direction
205 201 198 197 198 193 196 205 214 221 243 264 289 316 330 343 346 360 275 232 120 212 281 338 351 39 358 40 97 282 40 5 22 57 73 299 10 325 20 14 320 91 33 6 65 151 307 344 22 60 282 298 311 304
209 204 199 196 195 191 192 198 207 213 231 253 277 305 323 342 344 354 294 311 168 143 241 289 265 263 144 183 137 11 159 259 199 82 24 358 347 5 45 345 351 37 154 178 69 110 200 78 110 291 312 304 346 313
212 206 201 197 194 189 187 192 203 209 222 243 264 294 319 335 342 355 267 289 11 30 311 19 254 253 72 167 163 111 319 196 2 168 169 231 292 122 276 254 45 41 133 84 115 66 263 113 154 152 314 351 335 348
219 208 202 196 191 186 184 187 196 207 215 232 254 284 314 326 331 343 287 281 129 211 155 285 248 113 120 124 113 142 153 35 116 85 142 228 185 169 236 205 112 202 57 47 82 268 330 162 347 4 281 282 297 358
244 216 201 192 186 182 180 183 193 204 211 225 245 279 308 323 323 306 221 251 255 142 208 279 310 254 139 142 89 101 92 85 48 18 49 253 263 68 310 75 28 37 174 112 208 222 196 262 292 333 326 329 278 28
280 217 195 187 181 178 177 181 187 200 209 223 247 279 304 324 333 347 44 303 11 39 88 330 285 177 134 150 143 136 144 138 126 149 239 286 278 98 78 30 283 100 49 121 184 195 215 246 268 290 99 343 31 41
303 219 192 184 176 174 172 173 179 198 200 213 244 276 297 310 360 165 199 234 32 5 89 335 327 269 159 116 359 348 22 175 138 186 252 199 310 70 93 150 239 162 147 124 142 149 286 250 222 312 247 151 104 65
320 227 188 180 172 169 167 167 175 191 185 203 245 283 289 288 278 303 250 242 145 111 99 158 272 28 143 167 279 182 195 52 298 202 356 149 350 61 30 243 182 170 176 181 191 219 237 278 275 277 175 280 282 87
339 224 189 176 169 166 162 165 173 171 177 196 256 280 322 56 208 239 124 118 177 129 145 70 153 225 33 218 203 341 109 96 293 170 237 93 305 80 303 298 184 205 191 200 222 206 187 254 271 324 306 26 75 87
317 278 184 175 167 162 160 161 159 152 155 176 321 74 279 224 119 102 22 29 11 332 58 208 256 269 99 56 309 55 19 160 55 261 64 77 108 232 347 6 31 81 75 42 40 13 32 132 176 188 255 16 14 103
279 266 201 175 163 157 151 149 138 128 97 104 191 214 255 109 61 70 199 144 208 251 209 225 184 199 304 116 180 140 167 19 66 270 101 349 23 303 325 357 20 27 9 84 86 11 6 148 145 135 77 38 19 2
281 223 186 160 152 145 141 139 148 123 147 210 250 277 306 72 59 177 200 246 167 216 231 157 215 181 269 111 91 336 109 46 245 280 74 54 254 269 319 338 16 9 25 343 37 17 19 40 96 94 94 287 48 14
241 177 159 143 142 144 145 148 160 51 350 45 192 197 125 220 97 185 185 223 212 236 219 99 185 134 11 45 63 81 77 227 57 67 161 211 267 327 346 342 341 345 39 19 31 40 44 58 53 75 48 92 106 35
64 140 133 129 135 137 136 140 124 36 349 215 152 114 162 210 217 204 188 192 230 148 136 107 67 117 154 59 132 107 228 67 351 196 199 267 283 302 303 326 12 334 359 333 271 62 49 49 59 38 74 91 81 67
97 89 106 119 125 125 123 112 114 74 258 249 144 197 215 237 262 231 224 276 302 128 93 62 38 83 8 102 98 120 122 225 191 200 214 223 19 94 349 339 19 18 328 335 21 49 46 40 41 60 46 63 79 67
118 106 119 129 126 110 98 88 58 309 268 242 234 286 247 112 287 269 114 109 311 101 78 61 86 56 4 95 136 194 180 95 230 232 211 135 187 202 282 239 38 17 83 132 66 49 41 52 82 77 42 62 59 63
74 41 124 116 105 100 84 107 5 352 294 285 276 239 190 130 173 102 119 331 327 68 88 103 81 149 56 316 51 8 99 256 281 277 223 174 222 279 279 308 326 18 22 28 49 74 79 77 68 63 61 61 86 82
95 125 114 106 104 61 24 35 239 234 269 264 20 288 33 114 99 40 38 27 66 83 80 142 116 62 105 122 168 225 219 226 230 207 207 223 233 284 255 356 335 331 7 45 45 79 82 91 91 87 128 124 80 61
105 111 118 137 142 189 201 202 205 194 250 268 329 11 41 54 27 111 88 26 71 127 97 59 81 129 209 204 206 260 257 219 235 205 210 221 233 158 87 25 345 337 101 85 119 138 126 145 144 150 113 119 104 52
106 126 162 201 223 238 161 65 265 9 330 283 18 11 25 143 224 102 48 44 65 82 54 75 148 195 177 202 199 221 286 272 242 145 137 302 48 118 115 7 312 304 270 133 124 118 107 42 17 111 100 107 103 129
106 250 282 320 306 64 89 98 294 201 303 80 301 62 311 11 35 58 22 11 54 143 88 151 180 229 180 141 158 195 263 199 124 156 176 167 266 148 219 152 265 325 57 214 174 164 144 164 258 102 126 119 121 133
326 14 336 50 5 359 19 275 145 293 54 286 15 34 35 41 20 351 282 54 100 219 149 156 181 190 239 183 183 176 212 112 109 115 93 128 143 162 165 223 160 258 287 193 146 154 149 83 142 118 120 186 230 238
40 337 356 6 25 36 277 14 41 18 53 341 25 43 346 15 232 55 46 196 236 231 152 132 149 159 172 178 123 118 136 136 133 168 174 184 125 164 201 247 174 146 212 302 166 142 154 186 181 190 198 221 214 223
299 50 26 358 119 272 25 31 22 5 6 38 25 333 211 221 23 62 271 242 241 225 86 149 131 92 43 73 111 200 228 142 127 121 160 121 176 253 206 238 221 200 190 165 128 146 180 221 229 244 252 261 250 242
43 335 92 333 298 35 54 19 341 352 121 190 218 260 258 91 115 188 183 262 51 140 158 133 105 103 136 165 180 227 228 133 144 175 214 182 169 123 245 246 227 222 182 164 264 231 253 262 261 253 263 272 281 339
39 10 61 26 39 44 38 211 218 213 170 191 229 240 129 138 124 230 220 148 113 101 112 138 145 114 122 161 172 193 228 188 153 117 225 193 212 162 215 224 203 280 215 206 239 228 245 256 272 293 229 220 317 182
22 80 243 178 137 80 291 280 259 222 207 210 178 126 141 116 127 349 277 348 113 254 173 151 154 168 175 167 196 195 189 204 191 197 248 257 223 233 191 185 200 226 211 180 193 220 247 261 245 274 283 44 176 185
250 290 293 259 200 198 220 235 65 57 36 337 60 148 120 57 165 246 206 250 200 206 145 121 139 147 145 161 174 158 198 225 276 300 313 288 250 227 233 204 213 210 231 256 241 264 234 242 253 293 212 204 212 262
272 284 352 323 327 344 15 42 59 22 325 25 57 41 52 172 182 180 272 234 117 67 42 339 301 168 146 110 199 231 200 156 273 318 309 263 300 304 208 238 229 203 214 207 221 210 156 164 193 144 132 184 233 211
2 5 7 318 344 320 23 55 34 312 39 59 95 353 345 49 41 21 26 29 83 245 249 257 252 179 178 175 229 310 287 255 207 204 204 231 227 209 180 243 214 221 215 201 218 248 202 240 280 304 357 14 308 247
321 308 347 291 264 272 306 346 348 13 39 55 9 70 68 350 352 299 294 247 253 266 303 341 166 110 103 28 13 314 296 269 250 185 170 271 278 245 269 177 229 219 209 151 196 238 250 191 198 253 243 281 268 252
226 252 233 263 255 222 148 136 132 115 194 192 306 22 10 345 22 297 243 178 137 142 98 92 88 95 156 213 257 269 253 277 294 117 271 270 289 272 300 291 179 161 150 144 152 160 126 185 230 189 199 208 175 178
227 187 221 261 258 179 215 173 187 169 159 229 172 193 221 200 113 235 0 30 181 158 167 257 164 207 276 293 293 267 216 239 275 196 222 198 187 289 301 312 288 215 188 178 212 176 220 225 204 199 176 181 208 226